This is the latest recevied weather packets stored in our database for station/object OE3BCB-14. If no packets are shown the sender has not sent any weather packets the latest 10 day(s).
| Time | Temp. | Humidity | Pressure | Rain* | Wind** | Luminosity | Snow |
|---|---|---|---|---|---|---|---|
| 1777571450 | 15.56° C | 17% | 1029.2 hPa | - | - | 5 W/m² | - |
| 1777571148 | 16.11° C | 17% | 1029.2 hPa | - | - | 6 W/m² | - |
| 1777570845 | 16.67° C | 17% | 1029.1 hPa | - | - | 7 W/m² | - |
| 1777570543 | 17.22° C | 17% | 1029.1 hPa | - | - | 9 W/m² | - |
| 1777570240 | 18.89° C | 16% | 1029.2 hPa | - | - | 11 W/m² | - |
| 1777569938 | 21.11° C | 16% | 1029.2 hPa | - | - | 18 W/m² | - |
| 1777569636 | 21.67° C | 17% | 1029.2 hPa | - | - | 23 W/m² | - |
| 1777569333 | 22.22° C | 16% | 1029.2 hPa | - | - | 27 W/m² | - |
| 1777569031 | 22.22° C | 17% | 1029.2 hPa | - | - | 32 W/m² | - |
| 1777568728 | 22.22° C | 17% | 1029.3 hPa | - | - | 37 W/m² | - |
| 1777568426 | 22.22° C | 16% | 1029.3 hPa | - | - | 43 W/m² | - |
| 1777568124 | 22.22° C | 17% | 1029.3 hPa | - | - | 49 W/m² | - |
| 1777567821 | 22.22° C | 17% | 1029.2 hPa | - | - | 55 W/m² | - |
| 1777567519 | 22.22° C | 17% | 1029.2 hPa | - | - | 63 W/m² | - |
| 1777567216 | 22.78° C | 17% | 1029.1 hPa | - | - | 70 W/m² | - |
| 1777566914 | 23.89° C | 16% | 1029.1 hPa | - | - | 76 W/m² | - |
| 1777566611 | 23.89° C | 16% | 1029.1 hPa | - | - | 81 W/m² | - |
| 1777566309 | 24.44° C | 17% | 1029.1 hPa | - | - | 85 W/m² | - |
| 1777566007 | 25° C | 17% | 1029.1 hPa | - | - | 88 W/m² | - |
| 1777565704 | 24.44° C | 17% | 1029.2 hPa | - | - | 90 W/m² | - |
| 1777565402 | 23.89° C | 17% | 1029.3 hPa | - | - | 91 W/m² | - |
| 1777565099 | 24.44° C | 16% | 1029.3 hPa | - | - | 93 W/m² | - |
| 1777564797 | 23.89° C | 17% | 1029.3 hPa | - | - | 94 W/m² | - |
| 1777564495 | 23.33° C | 17% | 1029.3 hPa | - | - | 96 W/m² | - |
| 1777564192 | 23.89° C | 17% | 1029.4 hPa | - | - | 98 W/m² | - |
* Rain since midnight (hover to see other rain measurements)
** Current wind speed in m/s (hover to see current wind gust speed)